GW0590 Weather Reports


time (UTC)temp
F
wind
direction
speed
knots
gust
knots
rain 1hr
in
rain 24hr
in
rain mn
in
humidity
%
barometer
mb
20260507060052 48 0 0.0 0.9 0.00 0.17 0.00 92 1005.8
20260507054551 49 0 0.0 0.0 0.00 0.17 0.00 92 1006.3
20260507053051 49 0 0.0 0.0 0.00 0.17 0.00 92 1006.0
20260507051553 49 0 0.0 0.0 0.00 0.17 0.00 92 1006.4
20260507050057 49 0 0.0 0.9 0.00 0.17 0.00 91 1006.2
20260507044555 49 0 0.0 1.7 0.00 0.17 0.00 91 1005.9
20260507043051 49 0 0.0 1.7 0.00 0.17 0.00 91 1006.0
20260507041553 50 109 0.0 1.7 0.00 0.17 0.00 91 1006.2
20260507040058 51 127 0.0 0.9 0.00 0.17 0.00 91 1006.0
20260507034553 52 0 0.0 1.7 0.02 0.17 0.17 92 1005.8
20260507033054 53 0 0.0 0.9 0.02 0.17 0.17 92 1005.6
20260507031556 54 102 0.0 0.9 0.02 0.17 0.17 92 1005.4
20260507030055 55 0 0.0 2.6 0.02 0.17 0.17 92 1005.1
20260507024606 56 135 0.9 3.5 0.00 0.15 0.15 92 1005.5
20260507023051 56 84 0.0 1.7 0.00 0.15 0.15 93 1005.0
20260507021556 57 0 0.0 1.7 0.00 0.15 0.15 93 1004.7
20260507020108 58 0 0.0 0.0 0.00 0.15 0.15 94 1004.6
20260507014603 58 0 0.0 0.0 0.00 0.15 0.15 94 1004.5
20260507013055 58 0 0.0 0.0 0.00 0.15 0.15 94 1004.4
20260507011555 58 0 0.0 0.0 0.00 0.15 0.15 93 1004.4
20260507010049 58 0 0.0 0.0 0.00 0.15 0.15 93 1004.4
20260507004552 58 0 0.0 0.0 0.00 0.15 0.15 93 1004.4
20260507003055 58 0 0.0 0.9 0.00 0.15 0.15 93 1004.1
20260507001548 58 0 0.0 1.7 0.00 0.15 0.15 93 1004.1
20260507000054 58 0 0.0 0.9 0.00 0.15 0.15 93 1004.0
20260506234602 58 0 0.0 0.9 0.00 0.15 0.15 93 1003.9
20260506233059 58 0 0.0 0.9 0.00 0.15 0.15 93 1003.9
20260506231558 58 0 0.0 1.7 0.00 0.15 0.15 93 1003.9
20260506230100 58 0 0.0 1.7 0.00 0.15 0.15 93 1003.9
20260506224551 58 0 0.0 0.9 0.00 0.15 0.15 93 1004.0
20260506223058 59 0 0.0 0.9 0.01 0.15 0.15 93 1004.0
20260506221553 59 0 0.0 0.9 0.01 0.15 0.15 93 1004.1
20260506220056 59 0 0.0 0.9 0.02 0.15 0.15 93 1004.2
20260506214551 59 0 0.0 0.9 0.03 0.15 0.15 92 1004.2
20260506213103 59 0 0.0 5.2 0.03 0.14 0.14 92 1004.2
20260506211604 59 28 0.0 3.5 0.03 0.14 0.14 92 1004.2
20260506210055 60 0 0.0 1.7 0.03 0.13 0.13 92 1004.3
20260506204559 60 0 0.0 0.9 0.03 0.12 0.12 92 1004.6
20260506203053 60 91 0.0 2.6 0.02 0.11 0.11 92 1004.6
20260506201600 61 39 0.0 0.9 0.03 0.11 0.11 92 1004.7
20260506200050 61 230 0.0 1.7 0.02 0.10 0.10 92 1004.6
20260506194604 61 0 0.0 0.9 0.01 0.09 0.09 92 1005.1
20260506193053 61 0 0.0 0.9 0.02 0.09 0.09 92 1005.0
20260506191553 61 0 0.0 0.0 0.03 0.08 0.08 91 1004.7
20260506190054 61 88 0.0 0.9 0.06 0.08 0.08 91 1004.9
20260506184604 61 0 0.0 0.0 0.08 0.08 0.08 91 1005.2
20260506183100 62 0 0.0 0.9 0.07 0.07 0.07 90 1005.6
20260506181554 62 0 0.0 0.9 0.05 0.05 0.05 89 1005.7
20260506180053 63 0 0.0 0.9 0.02 0.02 0.02 86 1006.0
20260506174551 65 0 0.0 1.7 0.00 0.00 0.00 80 1006.1
20260506173053 67 159 0.0 3.5 0.00 0.00 0.00 73 1005.9
20260506171553 69 0 0.9 6.1 0.00 0.00 0.00 66 1005.8
20260506170109 69 0 0.0 2.6 0.00 0.00 0.00 68 1005.8
20260506164549 69 0 0.0 2.6 0.00 0.00 0.00 70 1005.9
20260506163106 69 0 0.0 1.7 0.00 0.00 0.00 70 1006.0
20260506161553 69 27 0.0 3.5 0.00 0.00 0.00 68 1006.2
20260506160052 69 0 0.0 1.7 0.00 0.00 0.00 70 1006.4
20260506154555 68 84 0.0 2.6 0.00 0.00 0.00 70 1006.9
20260506153050 68 53 0.0 1.7 0.00 0.00 0.00 70 1007.2
20260506151551 68 0 0.0 3.5 0.00 0.00 0.00 70 1007.4
20260506150050 68 0 0.0 3.5 0.00 0.00 0.00 72 1007.5
20260506144606 68 0 0.9 5.2 0.00 0.00 0.00 70 1007.4
20260506143103 68 0 0.0 3.5 0.00 0.00 0.00 71 1007.3
20260506141550 66 94 0.0 2.6 0.00 0.00 0.00 74 1007.2
20260506140049 65 80 0.0 0.9 0.00 0.00 0.00 77 1007.1
20260506134552 64 87 0.0 1.7 0.00 0.00 0.00 77 1007.2
20260506133054 63 88 0.0 2.6 0.00 0.00 0.00 79 1007.5
20260506131552 63 0 0.0 0.9 0.00 0.00 0.00 80 1007.7
20260506130057 63 0 0.0 0.0 0.00 0.00 0.00 80 1007.6
20260506124556 62 0 0.0 0.9 0.00 0.00 0.00 80 1007.7
20260506123052 61 329 0.0 0.9 0.00 0.00 0.00 81 1007.6
20260506121557 60 0 0.0 0.9 0.00 0.00 0.00 82 1007.6
20260506120056 60 0 0.0 1.7 0.00 0.00 0.00 82 1007.9
20260506114552 59 0 0.0 0.9 0.00 0.00 0.00 84 1007.9
20260506113054 59 0 0.0 2.6 0.00 0.00 0.00 84 1008.1
20260506111551 58 0 0.0 1.7 0.00 0.00 0.00 84 1008.2
20260506110053 58 0 0.0 0.9 0.00 0.00 0.00 85 1008.1
20260506104553 57 0 0.0 0.9 0.00 0.00 0.00 86 1008.0
20260506103058 57 0 0.0 0.9 0.00 0.00 0.00 85 1008.1
20260506101551 57 0 0.0 0.0 0.00 0.00 0.00 85 1007.9
20260506100052 56 0 0.0 0.9 0.00 0.00 0.00 86 1008.0
20260506094601 56 0 0.0 0.0 0.00 0.00 0.00 85 1007.9
20260506093052 56 0 0.0 0.9 0.00 0.00 0.00 84 1007.9
20260506091550 57 0 0.0 0.0 0.00 0.00 0.00 83 1007.9
20260506090056 57 0 0.0 0.0 0.00 0.00 0.00 83 1007.8
20260506084612 56 0 0.0 0.9 0.00 0.00 0.00 83 1008.0
20260506083052 55 0 0.0 0.0 0.00 0.00 0.00 84 1008.0
20260506081551 56 0 0.0 0.0 0.00 0.00 0.00 83 1008.0
20260506073059 57 0 0.0 0.0 0.00 0.00 0.00 79 1007.9
20260506071553 58 0 0.0 0.0 0.00 0.00 0.00 78 1007.7
20260506061601 60 0 0.0 0.0 0.00 0.00 0.00 74 1007.6